"Pseudo-MPEC" for ZTm0011

Created 2022 Nov 26 22:22:24 UT using Find_Orb

Click here for an explanation of pseudo-MPECs

 
 Astrometry: 
     ZTm0011* C2022 11 06.53010 11 58 38.22 +12 20 16.9    ~BE57 19.97rUNEOCPI41
     ZTm0011  C2022 11 06.53256 11 58 38.24 +12 20 20.0    ~BE57 19.99rUNEOCPI41
     ZTm0011  C2022 11 06.53502 11 58 38.19 +12 20 22.6    ~BE57 19.96rUNEOCPI41
     ZTm0011  C2022 11 06.53749 11 58 38.24 +12 20 24.9    ~BE57 19.89rUNEOCPI41

Station data:
(I41) Palomar Mountain--ZTF  (N33.357338 W116.859780)  US/California.
   Observers B. T. Bolin, Z. T. F. Collaboration. Measurers B. T. Bolin,
   Z.-Y. Lin, F. J. Masci. 1.2-m f/2.4 Schmidt.

Orbital elements:  ZTm0011
   Perihelion 2022 Jun 6.19304 +/- 26.4 TT =  4:37:58 (JD 2459736.69304)
Epoch 2022 Nov  7.0 TT = JDT 2459890.5   Earth MOID: 0.0074   AutoNEOCP
M 166.57349978 +/- 39               (J2000 ecliptic)
n   1.08300364 +/- 0.949            Peri.  261.79418 +/- 60
a   0.93910921 +/- 0.548            Node   335.55470 +/- 80
e   0.0442191 +/- 0.215             Incl.    0.22224 +/- 60
P   0.91/332.40d           H 23.2   G  0.15   U 12.7  SR
q 0.89758257 +/- 0.45    Q 0.98063585 +/- 25.7
From 4 observations 2022 Nov. 6 (10.6 min); mean residual 0".26
Residuals in arcseconds: 
221106 I41  .02+  .21-    221106 I41  .53-  .17+    
221106 I41  .22+  .22+    221106 I41  .27+  .19-    

Ephemerides (geocentric):
Date (UTC) HH   RA             Dec           delta  r     elong  mag " sig PA
---- --------  ------------   ------------  ------ ------ -----  --- --------
2022 11 26 22  13 19 33.972   +12 59 38.84  .01085 .98055  53.8 18??  69d   8
2022 11 26 23  13 19 53.546   +12 59 09.52  .01083 .98055  53.8 18??  69d   8
2022 11 27 00  13 20 13.180   +12 58 39.94  .01082 .98055  53.7 18??  70d   8
2022 11 27 01  13 20 32.875   +12 58 10.12  .01080 .98055  53.7 18??  70d   8
2022 11 27 02  13 20 52.629   +12 57 40.04  .01078 .98054  53.7 18??  70d   8
2022 11 27 03  13 21 12.445   +12 57 09.71  .01077 .98054  53.6 18??  70d   8
2022 11 27 04  13 21 32.321   +12 56 39.13  .01075 .98054  53.6 18??  70d   8
2022 11 27 05  13 21 52.258   +12 56 08.29  .01074 .98053  53.6 18??  70d   8
2022 11 27 06  13 22 12.257   +12 55 37.19  .01072 .98053  53.6 18??  70d   8
2022 11 27 07  13 22 32.317   +12 55 05.83  .01071 .98053  53.5 18??  70d   8
2022 11 27 08  13 22 52.439   +12 54 34.21  .01069 .98052  53.5 18??  70d   8
2022 11 27 09  13 23 12.622   +12 54 02.33  .01068 .98052  53.5 18??  70d   8
2022 11 27 10  13 23 32.868   +12 53 30.19  .01066 .98052  53.4 18??  70d   8
2022 11 27 11  13 23 53.176   +12 52 57.77  .01064 .98051  53.4 18??  70d   8
2022 11 27 12  13 24 13.547   +12 52 25.09  .01063 .98051  53.4 18??  70d   8
2022 11 27 13  13 24 33.980   +12 51 52.15  .01061 .98051  53.3 18??  70d   8
2022 11 27 14  13 24 54.476   +12 51 18.92  .01060 .98050  53.3 18??  70d   8
2022 11 27 15  13 25 15.036   +12 50 45.43  .01058 .98050  53.3 18??  70d   8
2022 11 27 16  13 25 35.659   +12 50 11.66  .01057 .98050  53.2 18??  70d   8
2022 11 27 17  13 25 56.345   +12 49 37.62  .01055 .98049  53.2 18??  70d   8
2022 11 27 18  13 26 17.095   +12 49 03.29  .01054 .98049  53.2 18??  70d   8
2022 11 27 19  13 26 37.910   +12 48 28.69  .01052 .98049  53.1 18??  70d   8
2022 11 27 20  13 26 58.788   +12 47 53.81  .01051 .98048  53.1 18??  70d   8
2022 11 27 21  13 27 19.731   +12 47 18.64  .01049 .98048  53.1 18??  70d   8
2022 11 27 22  13 27 40.739   +12 46 43.19  .01047 .98048  53.0 18??  70d   8
2022 11 27 23  13 28 01.812   +12 46 07.45  .01046 .98047  53.0 18??  71d   8
2022 11 28 00  13 28 22.949   +12 45 31.42  .01044 .98047  53.0 18??  71d   8
2022 11 28 01  13 28 44.152   +12 44 55.10  .01043 .98047  52.9 18??  71d   8
2022 11 28 02  13 29 05.421   +12 44 18.49  .01041 .98046  52.9 18??  71d   8
2022 11 28 03  13 29 26.755   +12 43 41.58  .01040 .98046  52.9 18??  71d   8
2022 11 28 04  13 29 48.156   +12 43 04.38  .01038 .98046  52.8 18??  71d   9
2022 11 28 05  13 30 09.623   +12 42 26.88  .01037 .98045  52.8 18??  71d   9
2022 11 28 06  13 30 31.156   +12 41 49.07  .01035 .98045  52.8 18??  71d   9
2022 11 28 07  13 30 52.756   +12 41 10.97  .01034 .98045  52.7 18??  71d   9
2022 11 28 08  13 31 14.423   +12 40 32.56  .01032 .98044  52.7 18??  71d   9
2022 11 28 09  13 31 36.157   +12 39 53.85  .01031 .98044  52.6 18??  71d   9
2022 11 28 10  13 31 57.958   +12 39 14.83  .01029 .98043  52.6 18??  71d   9
2022 11 28 11  13 32 19.827   +12 38 35.50  .01028 .98043  52.6 18??  71d   9
2022 11 28 12  13 32 41.764   +12 37 55.86  .01026 .98043  52.5 18??  71d   9
2022 11 28 13  13 33 03.769   +12 37 15.91  .01024 .98042  52.5 18??  71d   9
2022 11 28 14  13 33 25.842   +12 36 35.63  .01023 .98042  52.5 18??  71d   9
2022 11 28 15  13 33 47.984   +12 35 55.05  .01021 .98042  52.4 18??  71d   9
2022 11 28 16  13 34 10.195   +12 35 14.14  .01020 .98041  52.4 18??  71d   9
2022 11 28 17  13 34 32.474   +12 34 32.91  .01018 .98041  52.3 18??  71d   9
2022 11 28 18  13 34 54.823   +12 33 51.36  .01017 .98040  52.3 18??  71d   9
2022 11 28 19  13 35 17.241   +12 33 09.48  .01015 .98040  52.3 18??  71d   9
2022 11 28 20  13 35 39.729   +12 32 27.27  .01014 .98040  52.2 18??  71d   9
2022 11 28 21  13 36 02.287   +12 31 44.74  .01012 .98039  52.2 18??  71d   9